Tracking 19164 objects as of 21-May-2018
HD Live streaming from Space Station
objects crossing your sky now

FENGYUN 1C DEB

Track FENGYUN 1C DEB now!
10-day predictions


NORAD ID: 29880
Int'l Code: 1999-025GA
Perigee: 768.1 km
Apogee: 1,136.2 km
Inclination: 98.2 °
Period: 103.9 minutes
Semi major axis: 7323 km
RCS: 0.0219 m2 (small)
Launch date: May 10, 1999
Source: People's Republic of China (PRC)
Launch site: Taiyaun Space Center, China (TSC)

Note: This is SATELLITE DEBRIS
aabbcc
Your satellite tracking list
Your tracking list is empty




NASA's NSSDC Master Catalog

Two Line Element Set (TLE):
1 29880U 99025GA  18140.55565486  .00000371  00000-0  27968-3 0  9996
2 29880  98.1640   4.5022 0251305 210.9176 178.2058 13.85336544572526
Source of the keplerian elements: AFSPC